DAL1969 KMIA-KATL

Flight info

Callsign DAL1969
Flight time 1h 24m
Altitude 36000
Route FLMGO2 STYMY Q77 SHRKS LAIRI LARZZ JJEDI3
Aircraft A21N/M-SDE2E3FGHIRWXY/LB1

Departure

Time 2026-05-04 23:40
Airport Miami International Airport (KMIA)

Arrival

Time 2026-05-05 01:05
Airport Hartsfield Jackson Atlanta International Airport (KATL)
Time Latitude Longitude Altitude Speed Heading
2026-05-04 23:21 25.79728 -80.28352 27 ft 0 kts 357°
2026-05-04 23:32 25.79712 -80.28351 25 ft 3 kts 357°
2026-05-04 23:32 25.79694 -80.28349 27 ft 3 kts 329°
2026-05-04 23:32 25.79684 -80.28334 24 ft 0 kts 272°
2026-05-04 23:35 25.79683 -80.28349 25 ft 6 kts 266°
2026-05-04 23:35 25.79671 -80.28428 24 ft 14 kts 262°
2026-05-04 23:35 25.79660 -80.28531 28 ft 13 kts 261°
2026-05-04 23:36 25.79650 -80.28626 29 ft 12 kts 265°
2026-05-04 23:36 25.79642 -80.28713 26 ft 11 kts 264°
2026-05-04 23:36 25.79647 -80.28781 26 ft 10 kts 294°
2026-05-04 23:36 25.79723 -80.28813 27 ft 15 kts 358°
2026-05-04 23:37 25.79840 -80.28820 28 ft 18 kts 356°
2026-05-04 23:37 25.79963 -80.28826 29 ft 16 kts 357°
2026-05-04 23:37 25.80012 -80.28899 28 ft 16 kts 268°
2026-05-04 23:37 25.80006 -80.29043 28 ft 20 kts 268°
2026-05-04 23:38 25.80000 -80.29193 29 ft 19 kts 267°
2026-05-04 23:38 25.79993 -80.29360 24 ft 25 kts 267°
2026-05-04 23:38 25.79985 -80.29560 20 ft 26 kts 267°
2026-05-04 23:38 25.79977 -80.29757 21 ft 25 kts 267°
2026-05-04 23:39 25.79974 -80.29945 18 ft 21 kts 284°
2026-05-04 23:39 25.80016 -80.30052 19 ft 11 kts 329°
2026-05-04 23:39 25.80074 -80.30041 20 ft 7 kts 70°
2026-05-04 23:39 25.80078 -80.29973 19 ft 14 kts 88°
2026-05-04 23:40 25.80093 -80.29613 21 ft 82 kts 87°
2026-05-04 23:40 25.80130 -80.28715 27 ft 152 kts 87°
2026-05-04 23:40 25.80176 -80.27421 471 ft 166 kts 88°
2026-05-04 23:40 25.80236 -80.26140 1211 ft 170 kts 84°
2026-05-04 23:41 25.80343 -80.24795 1825 ft 184 kts 86°
2026-05-04 23:41 25.80421 -80.23280 2116 ft 210 kts 87°
2026-05-04 23:41 25.80487 -80.21534 2315 ft 242 kts 87°
2026-05-04 23:41 25.80580 -80.19600 2820 ft 257 kts 82°
2026-05-04 23:42 25.81141 -80.17706 3579 ft 262 kts 56°
2026-05-04 23:42 25.82442 -80.16353 4347 ft 263 kts 25°
2026-05-04 23:42 25.84234 -80.15842 4856 ft 266 kts
2026-05-04 23:42 25.86066 -80.15756 5496 ft 270 kts
2026-05-04 23:43 25.87953 -80.15728 6381 ft 272 kts 359°
2026-05-04 23:43 25.89839 -80.15920 7207 ft 274 kts 347°
2026-05-04 23:43 25.91691 -80.16482 8002 ft 277 kts 342°
2026-05-04 23:43 25.93536 -80.17135 8776 ft 280 kts 341°
2026-05-04 23:44 25.95404 -80.17806 9541 ft 284 kts 341°
2026-05-04 23:44 25.97295 -80.18482 10260 ft 289 kts 341°
2026-05-04 23:44 25.99168 -80.19458 10597 ft 308 kts 324°
2026-05-04 23:44 26.00902 -80.20990 10886 ft 329 kts 318°
2026-05-04 23:45 26.02653 -80.22736 11239 ft 345 kts 317°
2026-05-04 23:45 26.04449 -80.24551 11848 ft 353 kts 317°
2026-05-04 23:45 26.06280 -80.26392 12554 ft 357 kts 317°
2026-05-04 23:45 26.08113 -80.28225 13251 ft 361 kts 317°
2026-05-04 23:46 26.09992 -80.30100 13952 ft 365 kts 317°
2026-05-04 23:46 26.11891 -80.31992 14641 ft 368 kts 317°
2026-05-04 23:46 26.13811 -80.33902 15294 ft 372 kts 317°
2026-05-04 23:46 26.15750 -80.35832 15931 ft 376 kts 317°
2026-05-04 23:47 26.17708 -80.37782 16558 ft 379 kts 317°
2026-05-04 23:47 26.19685 -80.39751 17167 ft 383 kts 317°
2026-05-04 23:47 26.21691 -80.41728 17742 ft 387 kts 320°
2026-05-04 23:47 26.23919 -80.43407 18279 ft 390 kts 331°
2026-05-04 23:48 26.26354 -80.44782 18852 ft 393 kts 334°
2026-05-04 23:48 26.28840 -80.46096 19375 ft 397 kts 334°
2026-05-04 23:48 26.31314 -80.47395 19896 ft 400 kts 334°
2026-05-04 23:48 26.33837 -80.48725 20397 ft 403 kts 334°
2026-05-04 23:49 26.36379 -80.50070 20892 ft 406 kts 334°
2026-05-04 23:49 26.38942 -80.51429 21379 ft 409 kts 334°
2026-05-04 23:49 26.41521 -80.52800 21850 ft 412 kts 334°
2026-05-04 23:49 26.44116 -80.54180 22318 ft 415 kts 334°
2026-05-04 23:50 26.46733 -80.55567 22768 ft 418 kts 335°
2026-05-04 23:50 26.49448 -80.56758 23186 ft 421 kts 341°
2026-05-04 23:50 26.52258 -80.57713 23592 ft 424 kts 343°
2026-05-04 23:50 26.54882 -80.58548 23954 ft 426 kts 343°
2026-05-04 23:51 26.57707 -80.59438 24335 ft 429 kts 343°
2026-05-04 23:51 26.60583 -80.60345 24710 ft 431 kts 343°
2026-05-04 23:51 26.63479 -80.61262 25074 ft 434 kts 343°
2026-05-04 23:51 26.66391 -80.62186 25423 ft 436 kts 343°
2026-05-04 23:52 26.69317 -80.63116 25762 ft 438 kts 343°
2026-05-04 23:52 26.72256 -80.64050 26089 ft 440 kts 343°
2026-05-04 23:52 26.75211 -80.64991 26395 ft 443 kts 343°
2026-05-04 23:52 26.78182 -80.65937 26715 ft 445 kts 343°
2026-05-04 23:53 26.81167 -80.66888 27010 ft 447 kts 343°
2026-05-04 23:53 26.84158 -80.67843 27303 ft 449 kts 343°
2026-05-04 23:53 26.87171 -80.68804 27584 ft 451 kts 343°
2026-05-04 23:53 26.90192 -80.69770 27857 ft 453 kts 343°
2026-05-04 23:54 26.93201 -80.70833 28120 ft 454 kts 341°
2026-05-04 23:54 26.96163 -80.71947 28452 ft 454 kts 341°
2026-05-04 23:54 26.99152 -80.73083 28819 ft 453 kts 341°
2026-05-04 23:54 27.02134 -80.74216 29163 ft 452 kts 341°
2026-05-04 23:55 27.05109 -80.75345 29490 ft 452 kts 341°
2026-05-04 23:55 27.08085 -80.76474 29790 ft 451 kts 341°
2026-05-04 23:55 27.14022 -80.78725 30385 ft 450 kts 341°
2026-05-04 23:56 27.16991 -80.79851 30652 ft 449 kts 341°
2026-05-04 23:56 27.19949 -80.80974 30917 ft 449 kts 341°
2026-05-04 23:56 27.22907 -80.82097 31175 ft 449 kts 341°
2026-05-04 23:56 27.25864 -80.83220 31432 ft 448 kts 341°
2026-05-04 23:57 27.28816 -80.84342 31657 ft 448 kts 341°
2026-05-04 23:57 27.31766 -80.85468 31889 ft 447 kts 340°
2026-05-04 23:57 27.34691 -80.86643 32123 ft 447 kts 339°
2026-05-04 23:57 27.37571 -80.87825 32316 ft 447 kts 339°
2026-05-04 23:58 27.40492 -80.89029 32521 ft 446 kts 339°
2026-05-04 23:58 27.43405 -80.90229 32708 ft 446 kts 339°
2026-05-04 23:58 27.46315 -80.91428 32913 ft 446 kts 339°
2026-05-04 23:58 27.49227 -80.92628 33086 ft 445 kts 339°
2026-05-04 23:59 27.52137 -80.93827 33267 ft 445 kts 339°
2026-05-04 23:59 27.55042 -80.95024 33429 ft 445 kts 339°
2026-05-04 23:59 27.57913 -80.96208 33587 ft 444 kts 339°
2026-05-04 23:59 27.60812 -80.97404 33735 ft 444 kts 339°
2026-05-05 00:00 27.63715 -80.98603 33897 ft 444 kts 339°
2026-05-05 00:00 27.69507 -81.00996 34172 ft 443 kts 339°
2026-05-05 00:00 27.72408 -81.02195 34300 ft 443 kts 339°
2026-05-05 00:01 27.75301 -81.03392 34412 ft 444 kts 339°
2026-05-05 00:01 27.81111 -81.05799 34577 ft 445 kts 339°
2026-05-05 00:01 27.84022 -81.07005 34679 ft 445 kts 339°
2026-05-05 00:02 27.86921 -81.08207 34808 ft 444 kts 339°
2026-05-05 00:02 27.89827 -81.09413 34951 ft 444 kts 339°
2026-05-05 00:02 27.92727 -81.10617 35004 ft 444 kts 339°
2026-05-05 00:03 27.98485 -81.13011 34995 ft 443 kts 339°
2026-05-05 00:03 28.04282 -81.15460 34998 ft 448 kts 337°
2026-05-05 00:04 28.10015 -81.18308 34996 ft 454 kts 335°
2026-05-05 00:04 28.15779 -81.21352 34996 ft 460 kts 334°
2026-05-05 00:05 28.21626 -81.24421 35004 ft 466 kts 335°
2026-05-05 00:05 28.27481 -81.27459 35000 ft 466 kts 335°
2026-05-05 00:06 28.32954 -81.30284 34455 ft 464 kts 335°
2026-05-05 00:06 28.35728 -81.31692 35753 ft 421 kts 328°
2026-05-05 00:06 28.38417 -81.33044 35404 ft 421 kts 328°
2026-05-05 00:07 28.43789 -81.35802 35257 ft 425 kts 328°
2026-05-05 00:07 28.49157 -81.38622 35089 ft 425 kts 327°
2026-05-05 00:08 28.54464 -81.41474 34934 ft 424 kts 327°
2026-05-05 00:08 28.59779 -81.44394 34801 ft 424 kts 326°
2026-05-05 00:09 28.65061 -81.47360 34711 ft 422 kts 326°
2026-05-05 00:09 28.70380 -81.49943 34866 ft 421 kts 330°
2026-05-05 00:10 28.75847 -81.52426 34928 ft 425 kts 329°
2026-05-05 00:10 28.81257 -81.55066 35095 ft 426 kts 328°
2026-05-05 00:11 28.86667 -81.57826 35113 ft 425 kts 328°
2026-05-05 00:11 28.92172 -81.60357 35109 ft 433 kts 336°
2026-05-05 00:12 28.98209 -81.61503 35111 ft 444 kts 345°
2026-05-05 00:12 29.04382 -81.62117 35110 ft 446 kts 347°
2026-05-05 00:13 29.10573 -81.62633 35113 ft 446 kts 347°
2026-05-05 00:13 29.16712 -81.63162 35113 ft 445 kts 347°
2026-05-05 00:14 29.22884 -81.63718 35116 ft 445 kts 346°
2026-05-05 00:14 29.29062 -81.64285 35141 ft 445 kts 346°
2026-05-05 00:15 29.35214 -81.64851 35123 ft 443 kts 346°
2026-05-05 00:15 29.41361 -81.65417 35122 ft 443 kts 346°
2026-05-05 00:16 29.47464 -81.65980 35126 ft 442 kts 346°
2026-05-05 00:16 29.53599 -81.66546 35122 ft 442 kts 346°
2026-05-05 00:17 29.59728 -81.67111 35134 ft 441 kts 346°
2026-05-05 00:17 29.65838 -81.67675 35127 ft 440 kts 346°
2026-05-05 00:18 29.71932 -81.68239 35128 ft 440 kts 346°
2026-05-05 00:18 29.77990 -81.68801 35127 ft 440 kts 346°
2026-05-05 00:19 29.84090 -81.69367 35123 ft 440 kts 346°
2026-05-05 00:19 29.90181 -81.69932 35120 ft 438 kts 346°
2026-05-05 00:20 29.96254 -81.70495 35110 ft 438 kts 346°
2026-05-05 00:20 30.02331 -81.71061 35104 ft 438 kts 346°
2026-05-05 00:21 30.08362 -81.71624 35099 ft 438 kts 346°
2026-05-05 00:21 30.14439 -81.72191 35135 ft 438 kts 346°
2026-05-05 00:22 30.20512 -81.72759 35092 ft 438 kts 346°
2026-05-05 00:22 30.26581 -81.73326 35100 ft 438 kts 346°
2026-05-05 00:23 30.32649 -81.73895 35099 ft 437 kts 346°
2026-05-05 00:23 30.38717 -81.74464 35087 ft 437 kts 346°
2026-05-05 00:24 30.44782 -81.75033 35083 ft 438 kts 346°
2026-05-05 00:24 30.50810 -81.75600 35075 ft 438 kts 346°
2026-05-05 00:25 30.56884 -81.76172 35079 ft 438 kts 346°
2026-05-05 00:25 30.62779 -81.77342 35089 ft 422 kts 333°
2026-05-05 00:26 30.68112 -81.79971 35095 ft 415 kts 327°
2026-05-05 00:26 30.73286 -81.82937 35105 ft 416 kts 326°
2026-05-05 00:27 30.78454 -81.85985 35102 ft 422 kts 326°
2026-05-05 00:27 30.83705 -81.89057 35104 ft 422 kts 326°
2026-05-05 00:28 30.88962 -81.92110 35107 ft 422 kts 326°
2026-05-05 00:28 30.94218 -81.95159 35103 ft 422 kts 326°
2026-05-05 00:29 30.99475 -81.98214 35113 ft 422 kts 326°
2026-05-05 00:29 31.04695 -82.01254 35105 ft 423 kts 326°
2026-05-05 00:30 31.09963 -82.04326 35089 ft 423 kts 326°
2026-05-05 00:30 31.15228 -82.07400 35098 ft 423 kts 326°
2026-05-05 00:31 31.19597 -82.09952 35084 ft 423 kts 326°
2026-05-05 00:31 31.24860 -82.13031 35082 ft 423 kts 326°
2026-05-05 00:32 31.30122 -82.16114 35093 ft 423 kts 326°
2026-05-05 00:32 31.35388 -82.19203 35079 ft 424 kts 326°
2026-05-05 00:33 31.40625 -82.22279 35082 ft 424 kts 326°
2026-05-05 00:33 31.45893 -82.25376 35078 ft 424 kts 326°
2026-05-05 00:34 31.51164 -82.28479 35083 ft 424 kts 326°
2026-05-05 00:34 31.56436 -82.31587 35082 ft 424 kts 326°
2026-05-05 00:35 31.61707 -82.34700 35086 ft 425 kts 326°
2026-05-05 00:35 31.66966 -82.37809 35083 ft 426 kts 326°
2026-05-05 00:36 31.72254 -82.40936 35078 ft 424 kts 326°
2026-05-05 00:36 31.77504 -82.44043 35080 ft 421 kts 326°
2026-05-05 00:37 31.82720 -82.47139 35079 ft 420 kts 326°
2026-05-05 00:37 31.87943 -82.50244 35063 ft 422 kts 327°
2026-05-05 00:38 31.93177 -82.53362 35057 ft 426 kts 327°
2026-05-05 00:38 31.98073 -82.57109 35057 ft 417 kts 316°
2026-05-05 00:39 32.02506 -82.61440 34574 ft 412 kts 314°
2026-05-05 00:39 32.04676 -82.63655 34114 ft 417 kts 314°
2026-05-05 00:39 32.06866 -82.65914 33584 ft 420 kts 314°
2026-05-05 00:39 32.09068 -82.68188 33054 ft 423 kts 314°
2026-05-05 00:40 32.11261 -82.70448 32550 ft 427 kts 314°
2026-05-05 00:40 32.13510 -82.72761 32034 ft 430 kts 314°
2026-05-05 00:40 32.15780 -82.75090 31548 ft 435 kts 315°
2026-05-05 00:40 32.18071 -82.77437 31051 ft 437 kts 315°
2026-05-05 00:41 32.20376 -82.79796 30572 ft 440 kts 315°
2026-05-05 00:41 32.22696 -82.82171 30087 ft 442 kts 315°
2026-05-05 00:41 32.25011 -82.84541 29528 ft 441 kts 315°
2026-05-05 00:41 32.27324 -82.86910 28904 ft 439 kts 315°
2026-05-05 00:42 32.29617 -82.89261 28289 ft 434 kts 315°
2026-05-05 00:42 32.31857 -82.91559 27799 ft 430 kts 315°
2026-05-05 00:42 32.34111 -82.93875 27281 ft 427 kts 315°
2026-05-05 00:42 32.36338 -82.96167 26758 ft 424 kts 315°
2026-05-05 00:43 32.38559 -82.98450 26287 ft 421 kts 315°
2026-05-05 00:43 32.40768 -83.00717 26087 ft 419 kts 315°
2026-05-05 00:43 32.42964 -83.02975 25878 ft 418 kts 316°
2026-05-05 00:43 32.45158 -83.05234 25399 ft 417 kts 316°
2026-05-05 00:44 32.47338 -83.07481 24966 ft 416 kts 316°
2026-05-05 00:44 32.49509 -83.09721 24522 ft 414 kts 316°
2026-05-05 00:44 32.51638 -83.11919 24089 ft 411 kts 316°
2026-05-05 00:44 32.53788 -83.14141 23658 ft 409 kts 316°
2026-05-05 00:45 32.55922 -83.16348 23149 ft 406 kts 316°
2026-05-05 00:45 32.58049 -83.18550 22642 ft 404 kts 316°
2026-05-05 00:45 32.60159 -83.20734 22150 ft 401 kts 316°
2026-05-05 00:45 32.62251 -83.22902 21644 ft 399 kts 316°
2026-05-05 00:46 32.64337 -83.25065 21179 ft 397 kts 316°
2026-05-05 00:46 32.66413 -83.27219 20698 ft 395 kts 316°
2026-05-05 00:46 32.68451 -83.29335 20237 ft 394 kts 315°
2026-05-05 00:46 32.70507 -83.31471 19786 ft 392 kts 315°
2026-05-05 00:47 32.72555 -83.33601 19339 ft 391 kts 315°
2026-05-05 00:47 32.74585 -83.35712 18910 ft 384 kts 315°
2026-05-05 00:47 32.76571 -83.37778 18498 ft 377 kts 315°
2026-05-05 00:47 32.78527 -83.39814 18048 ft 369 kts 315°
2026-05-05 00:48 32.80442 -83.41809 17579 ft 363 kts 315°
2026-05-05 00:48 32.82322 -83.43771 17107 ft 358 kts 316°
2026-05-05 00:48 32.84187 -83.45718 16650 ft 355 kts 316°
2026-05-05 00:48 32.86015 -83.47629 16214 ft 354 kts 316°
2026-05-05 00:49 32.87860 -83.49557 15745 ft 353 kts 316°
2026-05-05 00:49 32.89698 -83.51478 15372 ft 351 kts 316°
2026-05-05 00:49 32.91530 -83.53395 14982 ft 349 kts 316°
2026-05-05 00:49 32.93349 -83.55298 14612 ft 348 kts 316°
2026-05-05 00:50 32.95163 -83.57197 14232 ft 346 kts 317°
2026-05-05 00:50 32.96969 -83.59089 13860 ft 345 kts 317°
2026-05-05 00:50 32.98763 -83.60968 13450 ft 344 kts 317°
2026-05-05 00:50 33.00556 -83.62848 13038 ft 342 kts 317°
2026-05-05 00:51 33.02337 -83.64716 12628 ft 340 kts 317°
2026-05-05 00:51 33.04082 -83.66548 12263 ft 338 kts 316°
2026-05-05 00:51 33.05841 -83.68396 12010 ft 337 kts 316°
2026-05-05 00:51 33.07599 -83.70244 11752 ft 336 kts 316°
2026-05-05 00:52 33.09348 -83.72084 11407 ft 335 kts 316°
2026-05-05 00:52 33.11094 -83.73921 11089 ft 334 kts 316°
2026-05-05 00:52 33.12830 -83.75748 10783 ft 332 kts 316°
2026-05-05 00:52 33.14556 -83.77567 10468 ft 331 kts 316°
2026-05-05 00:53 33.16281 -83.79385 10163 ft 330 kts 316°
2026-05-05 00:53 33.17994 -83.81192 9843 ft 329 kts 316°
2026-05-05 00:53 33.19645 -83.83025 9513 ft 327 kts 314°
2026-05-05 00:53 33.21246 -83.84907 9173 ft 318 kts 313°
2026-05-05 00:54 33.22789 -83.86745 8853 ft 308 kts 313°
2026-05-05 00:54 33.24287 -83.88531 8529 ft 300 kts 313°
2026-05-05 00:54 33.25742 -83.90267 8210 ft 292 kts 313°
2026-05-05 00:54 33.27164 -83.91963 7888 ft 287 kts 312°
2026-05-05 00:55 33.28569 -83.93641 7568 ft 285 kts 313°
2026-05-05 00:55 33.29969 -83.95314 7249 ft 284 kts 312°
2026-05-05 00:55 33.31364 -83.96984 6936 ft 284 kts 312°
2026-05-05 00:55 33.32738 -83.98628 6640 ft 283 kts 312°
2026-05-05 00:56 33.34122 -84.00285 6324 ft 282 kts 312°
2026-05-05 00:56 33.35572 -84.01853 6040 ft 282 kts 323°
2026-05-05 00:56 33.37363 -84.02799 5791 ft 284 kts 348°
2026-05-05 00:56 33.39336 -84.03026 5547 ft 285 kts 357°
2026-05-05 00:57 33.41319 -84.03068 5293 ft 285 kts 358°
2026-05-05 00:57 33.43302 -84.03086 5024 ft 285 kts 358°
2026-05-05 00:57 33.45279 -84.03110 4749 ft 284 kts 358°
2026-05-05 00:57 33.47225 -84.03390 4480 ft 279 kts 340°
2026-05-05 00:58 33.48829 -84.04486 4225 ft 264 kts 312°
2026-05-05 00:58 33.49872 -84.06250 3974 ft 252 kts 297°
2026-05-05 00:58 33.50846 -84.07935 3696 ft 248 kts 309°
2026-05-05 00:58 33.52041 -84.09388 3428 ft 243 kts 314°
2026-05-05 00:59 33.53276 -84.10751 3244 ft 239 kts 315°
2026-05-05 00:59 33.54514 -84.12091 3005 ft 240 kts 315°
2026-05-05 00:59 33.55753 -84.13429 2757 ft 240 kts 315°
2026-05-05 00:59 33.56993 -84.14766 2513 ft 240 kts 315°
2026-05-05 01:00 33.58235 -84.16105 2262 ft 239 kts 314°
2026-05-05 01:00 33.59453 -84.17421 2063 ft 238 kts 314°
2026-05-05 01:00 33.60681 -84.18747 2016 ft 238 kts 315°
2026-05-05 01:00 33.61896 -84.20095 2013 ft 238 kts 310°
2026-05-05 01:01 33.62824 -84.21697 2010 ft 231 kts 289°
2026-05-05 01:01 33.63191 -84.23538 2011 ft 226 kts 270°
2026-05-05 01:01 33.63193 -84.25358 2016 ft 206 kts 265°
2026-05-05 01:01 33.63178 -84.26956 2035 ft 177 kts 265°
2026-05-05 01:02 33.63179 -84.28323 2039 ft 154 kts 264°
2026-05-05 01:02 33.63180 -84.29607 2031 ft 155 kts 264°
2026-05-05 01:02 33.63179 -84.30884 2016 ft 156 kts 265°
2026-05-05 01:02 33.63179 -84.32183 2016 ft 156 kts 265°
2026-05-05 01:03 33.63180 -84.33483 2015 ft 156 kts 264°
2026-05-05 01:03 33.63180 -84.34784 2011 ft 156 kts 264°
2026-05-05 01:03 33.63182 -84.36081 1989 ft 156 kts 264°
2026-05-05 01:03 33.63179 -84.37382 1803 ft 155 kts 264°
2026-05-05 01:04 33.63176 -84.38679 1608 ft 157 kts 265°
2026-05-05 01:04 33.63187 -84.41313 1138 ft 157 kts 266°
2026-05-05 01:04 33.63181 -84.42603 1009 ft 143 kts 268°
2026-05-05 01:05 33.63189 -84.43459 1010 ft 61 kts 279°
2026-05-05 01:05 33.63266 -84.43713 1009 ft 8 kts 298°
2026-05-05 01:05 33.63295 -84.43773 1009 ft 9 kts 300°
2026-05-05 01:05 33.63338 -84.43861 1009 ft 19 kts 293°
2026-05-05 01:06 33.63361 -84.44026 1009 ft 20 kts 270°
2026-05-05 01:06 33.63376 -84.44174 1009 ft 15 kts 315°
2026-05-05 01:06 33.63475 -84.44191 1010 ft 15 kts 360°
2026-05-05 01:06 33.63568 -84.44170 1010 ft 13 kts 56°
2026-05-05 01:07 33.63581 -84.44037 1010 ft 18 kts 89°
2026-05-05 01:07 33.63581 -84.43878 1010 ft 20 kts 89°
2026-05-05 01:07 33.63617 -84.43757 1009 ft 14 kts
2026-05-05 01:07 33.63701 -84.43726 1009 ft 13 kts 12°
2026-05-05 01:08 33.63804 -84.43721 1009 ft 15 kts 360°
2026-05-05 01:08 33.63870 -84.43713 1009 ft 4 kts 46°
2026-05-05 01:08 33.63875 -84.43660 1009 ft 8 kts 90°
2026-05-05 01:08 33.63875 -84.43646 1009 ft 0 kts 90°